Dewpoint
18 20 21 21 21 22 22 21 23 24 23 23 22 23 25 26 26 27 29 30 30 31 32 34 33 34 34
20 20 21 21 22 22 23 26 24 21 21 20 23 23 24 26 26 27 27 27 28 29 30 30 31 32 32
21 22 21 22 24 25 27 22 20 18 19 21 21 25 25 25 25 25 26 26 27 27 27 28 29 30 32
22 23 24 26 26 23 20 18 18 20 20 23 26 23 23 23 24 25 25 25 26 26 27 28 29 30 31
23 23 23 23 22 22 18 19 19 21 23 22 21 21 21 22 23 23 24 25 26 27 28 29 29 30 32
24 24 23 22 19 19 19 19 20 24 21 20 21 20 22 23 22 24 24 26 26 27 29 29 30 32 32
23 21 18 19 20 20 22 25 24 22 21 21 21 21 22 21 22 24 25 26 27 28 29 30 30 30 31
20 19 20 21 23 29 27 23 22 22 21 20 20 20 20 22 23 23 25 26 26 26 28 28 30 31 32
20 21 22 22 21 20 22 21 19 19 20 20 20 21 21 20 21 23 23 23 25 26 27 28 29 30 32
21 21 19 18 19 20 20 21 21 18 19 20 21 21 18 18 19 20 22 22 23 25 26 28 29 31 32
18 17 18 19 19 21 22 24 21 19 19 22 21 21 20 19 18 20 21 22 23 24 26 28 30 30 31
17 18 19 20 21 22 22 22 23 23 23 25 22 21 20 18 18 19 21 23 24 25 27 28 29 30 31
19 20 20 21 22 22 21 22 22 23 23 23 22 22 22 20 20 21 22 23 25 26 27 28 29 30 29
19 20 21 21 20 20 21 20 20 19 21 22 22 23 22 23 23 22 23 23 25 26 27 29 30 29 30
20 20 20 19 19 19 20 20 20 19 19 21 22 23 24 24 23 23 24 25 26 26 26 27 27 29 29
20 20 19 19 19 20 20 19 18 19 20 21 21 22 22 22 25 26 27 26 26 26 26 26 27 27 28
20 19 19 20 19 18 18 19 19 19 19 21 23 23 20 18 21 24 25 26 26 26 26 27 27 28 29
Wind_Speed
16 15 15 16 20 18 18 21 19 28 32 34 31 32 36 35 35 36 36 35 35 35 34 34 35 35 35
18 16 15 17 17 23 19 20 21 27 28 33 33 35 36 36 35 35 34 35 35 34 33 34 34 35 35
21 16 19 18 20 18 19 19 17 24 27 30 35 34 34 35 34 35 35 36 34 33 33 33 33 34 35
17 20 18 17 18 19 22 16 19 18 25 30 28 34 32 33 36 34 33 32 32 31 32 32 32 33 34
19 22 21 19 20 17 19 21 24 21 19 21 16 22 24 28 29 31 31 32 32 32 32 32 31 31 33
21 21 22 19 16 17 22 24 26 14 11 27 20 24 21 20 29 34 34 33 32 33 32 32 32 32 33
25 22 24 22 17 21 24 23 22 23 18 28 21 25 21 22 31 34 36 34 30 27 27 28 30 32 34
20 21 18 22 23 21 21 21 22 21 15 23 24 27 24 20 32 36 32 27 25 29 32 31 31 31 32
28 28 30 31 27 20 19 20 26 24 17 19 21 23 24 27 22 23 24 29 31 29 30 31 30 31 29
16 19 20 18 23 16 18 20 22 27 10 13 21 16 14 14 14 20 17 23 29 30 30 32 31 23 21
17 17 16 16 16 15 15 16 22 24 26 20 19 22 16 20 17 20 22 22 19 24 28 29 29 28 24
16 18 18 19 18 18 20 21 21 26 27 22 19 23 24 27 30 22 23 23 20 21 22 25 29 30 31
17 19 17 19 20 19 20 19 21 23 22 22 22 23 22 26 27 28 27 24 24 20 18 24 24 22 26
18 20 19 19 21 18 20 21 22 24 18 17 18 19 22 23 24 28 26 21 23 24 23 24 23 22 23
18 20 21 20 21 19 19 20 20 22 25 22 18 20 23 26 27 26 26 25 24 23 24 24 27 23 21
19 19 20 20 21 21 18 18 20 22 22 22 23 23 21 18 23 23 21 23 23 24 23 24 26 23 21
18 20 20 19 22 21 21 19 21 21 22 21 20 20 24 28 21 14 17 23 24 23 22 22 25 26 23
Wind_Direction
295 295 295 305 302 287 294 293 290 293 297 297 297 299 299 296 297 296 293 292 288 286 286 285 282 279 281
303 305 303 300 300 298 291 292 289 291 295 302 302 301 299 298 296 291 290 290 291 288 285 281 281 284 282
301 303 300 299 295 291 288 291 289 300 302 301 300 297 298 298 295 297 300 296 291 289 285 284 283 281 281
295 299 296 295 288 296 298 295 301 300 296 291 294 297 296 298 298 295 295 293 289 286 284 284 281 278 277
296 303 303 304 300 296 297 302 295 293 288 289 297 294 289 291 292 293 292 290 291 289 286 283 282 280 278
301 298 300 299 302 301 296 299 296 285 299 295 294 289 288 288 291 294 297 295 294 292 288 286 284 282 279
300 298 299 300 294 294 291 287 288 297 295 291 295 290 290 291 293 293 298 298 295 292 287 285 283 280 278
294 297 295 298 296 291 292 294 294 293 287 286 296 292 296 289 293 294 296 294 296 299 296 291 286 283 282
301 301 304 306 306 311 305 306 300 298 302 289 291 296 298 291 281 283 292 301 299 298 296 293 290 291 289
308 305 298 293 304 301 298 293 296 302 298 308 300 307 306 274 282 297 287 293 296 295 295 294 292 287 282
303 298 298 296 295 290 288 289 292 288 290 299 296 293 282 295 291 294 293 292 289 291 288 289 290 288 286
298 299 299 299 298 294 291 284 275 272 284 285 281 287 288 288 292 297 294 291 284 283 286 284 286 291 291
300 299 300 297 298 297 294 287 280 277 279 277 271 278 276 280 286 289 294 298 290 280 282 288 283 289 293
303 301 302 303 301 299 296 300 297 297 288 275 271 271 277 276 280 284 287 283 289 289 287 288 285 288 278
303 301 301 301 299 301 295 294 293 300 303 306 296 281 272 272 279 280 283 285 286 287 295 292 289 284 280
298 296 296 297 298 299 298 296 294 298 299 300 301 300 296 279 258 274 281 284 288 291 291 285 288 296 290
296 295 294 293 301 299 299 298 297 296 296 296 296 299 304 307 306 277 282 285 290 291 290 290 288 292 294